Location: Peterborough
(44.3091°N, 78.3197°W)
Time: 23:56:34
(UTC-04:00)

Vanguard 1 Rocket - Pass Details

Date: 25 March 2023
Orbit: 655 x 4220 km, 34.3° (Epoch: 02 June)

Event Time Altitude Azimuth Distance (km) Brightness Sun altitude
Rises 02:16:20 0° 258° (WSW) 7,899 11.9 -42.2°
Enters shadow 02:19:39 - 256° (WSW) 7,129 11.7 -42.0°
Exits shadow 02:46:54 21° 118° (ESE) 3,000 9.9 -40.0°
Drops below altitude 10° 02:48:56 10° 111° (ESE) 3,498 10.4 -39.8°
Sets 02:51:16 0° 106° (ESE) 4,172 10.9 -39.6°
